When you browse on this site, cookies collect data to enhance your experience and personalize the content and advertising you see.
Visit our Privacy Policy to learn more. By continuing to use the site, you agree to this use of cookies and data.
  • In Czech Republic
  • List of Countries
  • For 7 days
  • Water Temperature
  • Satellite Maps
  • Weather Map
  • Weather Widgets
  • user-avatar
    Login

    Hourly Weather Mansoa

    Today, 14 December, Friday

    Time Temperature Precipitation Wind Pressure Humidity
    00:00 +26°C° 0 mm 1 mps 758 mmHg 42%
    01:00 +25°C° 0 mm 1 mps 758 mmHg 44%
    02:00 +23°C° 0 mm 0 mps 758 mmHg 46%
    03:00 +23°C° 0 mm 0 mps 758 mmHg 47%
    04:00 +22°C° 0 mm 0 mps 758 mmHg 48%
    05:00 +24°C° 0 mm 1 mps 758 mmHg 51%
    06:00 +26°C° 0 mm 1 mps 758 mmHg 46%
    07:00 +27°C° 0 mm 1 mps 759 mmHg 42%
    08:00 +29°C° 0 mm 1 mps 759 mmHg 37%
    09:00 +32°C° 0 mm 2 mps 759 mmHg 30%
    10:00 +35°C° 0 mm 2 mps 759 mmHg 24%
    11:00 +38°C° 0 mm 2 mps 759 mmHg 18%
    12:00 +38°C° 0 mm 2 mps 758 mmHg 17%
    13:00 +38°C° 0 mm 2 mps 758 mmHg 17%
    14:00 +38°C° 0 mm 2 mps 757 mmHg 16%
    15:00 +37°C° 0 mm 2 mps 757 mmHg 18%
    16:00 +36°C° 0 mm 2 mps 757 mmHg 21%
    17:00 +33°C° 0 mm 1 mps 757 mmHg 23%
    18:00 +32°C° 0 mm 1 mps 758 mmHg 23%
    19:00 +32°C° 0 mm 1 mps 758 mmHg 24%
    20:00 +31°C° 0 mm 1 mps 759 mmHg 24%
    21:00 +31°C° 0 mm 1 mps 759 mmHg 26%
    22:00 +30°C° 0 mm 2 mps 759 mmHg 28%
    23:00 +30°C° 0 mm 2 mps 759 mmHg 31%

    Tomorrow, 15 December, Saturday

    Time Temperature Precipitation Wind Pressure Humidity
    00:00 +29°C° 0 mm 2 mps 759 mmHg 31%
    01:00 +29°C° 0 mm 2 mps 759 mmHg 32%
    02:00 +29°C° 0 mm 2 mps 759 mmHg 33%
    03:00 +28°C° 0 mm 2 mps 759 mmHg 31%
    04:00 +28°C° 0 mm 2 mps 759 mmHg 29%
    05:00 +27°C° 0 mm 2 mps 759 mmHg 27%
    06:00 +28°C° 0 mm 2 mps 760 mmHg 24%
    07:00 +29°C° 0 mm 3 mps 760 mmHg 21%
    08:00 +30°C° 0 mm 3 mps 760 mmHg 17%
    09:00 +33°C° 0 mm 4 mps 760 mmHg 15%
    10:00 +36°C° 0 mm 5 mps 760 mmHg 12%
    11:00 +40°C° 0 mm 5 mps 761 mmHg 9%
    12:00 +41°C° 0 mm 5 mps 760 mmHg 9%
    13:00 +41°C° 0 mm 5 mps 759 mmHg 9%
    14:00 +42°C° 0 mm 5 mps 759 mmHg 9%
    15:00 +41°C° 0 mm 5 mps 759 mmHg 10%
    16:00 +40°C° 0 mm 4 mps 759 mmHg 11%
    17:00 +37°C° 0 mm 4 mps 759 mmHg 13%
    18:00 +35°C° 0 mm 5 mps 759 mmHg 16%
    19:00 +34°C° 0 mm 5 mps 760 mmHg 18%
    20:00 +32°C° 0 mm 6 mps 760 mmHg 21%
    21:00 +30°C° 0 mm 5 mps 760 mmHg 22%
    22:00 +30°C° 0 mm 5 mps 760 mmHg 22%
    23:00 +30°C° 0 mm 4 mps 760 mmHg 22%

    Day after tomorrow, 16 December, Sunday

    Time Temperature Precipitation Wind Pressure Humidity
    00:00 +30°C° 0 mm 4 mps 760 mmHg 23%
    01:00 +29°C° 0 mm 4 mps 760 mmHg 23%
    02:00 +29°C° 0 mm 3 mps 759 mmHg 24%
    03:00 +28°C° 0 mm 3 mps 759 mmHg 24%
    04:00 +28°C° 0 mm 3 mps 759 mmHg 24%
    05:00 +28°C° 0 mm 3 mps 759 mmHg 25%
    06:00 +29°C° 0 mm 4 mps 759 mmHg 23%
    07:00 +29°C° 0 mm 4 mps 760 mmHg 22%
    08:00 +30°C° 0 mm 5 mps 760 mmHg 20%
    09:00 +33°C° 0 mm 5 mps 760 mmHg 17%
    10:00 +36°C° 0 mm 5 mps 760 mmHg 14%
    11:00 +39°C° 0 mm 5 mps 759 mmHg 11%
    12:00 +40°C° 0 mm 5 mps 759 mmHg 11%
    13:00 +41°C° 0 mm 4 mps 758 mmHg 10%
    14:00 +42°C° 0 mm 4 mps 757 mmHg 10%
    15:00 +40°C° 0 mm 3 mps 757 mmHg 11%
    16:00 +39°C° 0 mm 3 mps 757 mmHg 12%
    17:00 +38°C° 0 mm 2 mps 757 mmHg 12%
    18:00 +35°C° 0 mm 2 mps 757 mmHg 13%
    19:00 +33°C° 0 mm 3 mps 758 mmHg 14%
    20:00 +30°C° 0 mm 3 mps 759 mmHg 15%
    21:00 +29°C° 0 mm 3 mps 759 mmHg 14%
    22:00 +29°C° 0 mm 3 mps 759 mmHg 14%
    23:00 +28°C° 0 mm 3 mps 759 mmHg 14%

    17 December, Monday

    Time Temperature Precipitation Wind Pressure Humidity
    00:00 +27°C° 0 mm 3 mps 759 mmHg 14%
    01:00 +26°C° 0 mm 2 mps 758 mmHg 14%
    02:00 +26°C° 0 mm 2 mps 758 mmHg 14%
    03:00 +25°C° 0 mm 2 mps 758 mmHg 14%
    04:00 +24°C° 0 mm 2 mps 758 mmHg 15%
    05:00 +24°C° 0 mm 2 mps 758 mmHg 15%
    06:00 +25°C° 0 mm 3 mps 758 mmHg 14%
    07:00 +27°C° 0 mm 3 mps 759 mmHg 13%
    08:00 +28°C° 0 mm 4 mps 759 mmHg 12%
    09:00 +32°C° 0 mm 4 mps 759 mmHg 11%
    10:00 +35°C° 0 mm 4 mps 759 mmHg 9%
    11:00 +38°C° 0 mm 4 mps 758 mmHg 7%
    12:00 +40°C° 0 mm 3 mps 758 mmHg 7%
    13:00 +42°C° 0 mm 3 mps 757 mmHg 7%
    14:00 +42°C° 0 mm 2 mps 756 mmHg 7%
    15:00 +40°C° 0 mm 2 mps 756 mmHg 9%
    16:00 +39°C° 0 mm 2 mps 756 mmHg 11%
    17:00 +38°C° 0 mm 2 mps 756 mmHg 13%
    18:00 +35°C° 0 mm 2 mps 757 mmHg 21%
    19:00 +31°C° 0 mm 2 mps 757 mmHg 29%
    20:00 +28°C° 0 mm 2 mps 758 mmHg 38%
    21:00 +27°C° 0 mm 2 mps 758 mmHg 44%
    22:00 +26°C° 0 mm 1 mps 759 mmHg 51%
    23:00 +26°C° 0 mm 1 mps 759 mmHg 57%

    18 December, Tuesday

    Time Temperature Precipitation Wind Pressure Humidity
    00:00 +25°C° 0 mm 1 mps 758 mmHg 62%
    01:00 +25°C° 0 mm 1 mps 758 mmHg 66%
    02:00 +24°C° 0 mm 1 mps 758 mmHg 70%
    03:00 +24°C° 0 mm 1 mps 758 mmHg 71%
    04:00 +23°C° 0 mm 1 mps 758 mmHg 72%
    05:00 +23°C° 0 mm 1 mps 758 mmHg 73%
    06:00 +25°C° 0 mm 1 mps 759 mmHg 65%
    07:00 +26°C° 0 mm 1 mps 759 mmHg 58%
    08:00 +27°C° 0 mm 2 mps 760 mmHg 50%
    09:00 +30°C° 0 mm 2 mps 759 mmHg 38%
    10:00 +34°C° 0 mm 2 mps 759 mmHg 26%
    11:00 +37°C° 0 mm 3 mps 759 mmHg 15%
    12:00 +39°C° 0 mm 2 mps 758 mmHg 13%
    13:00 +40°C° 0 mm 2 mps 757 mmHg 12%
    14:00 +41°C° 0 mm 2 mps 756 mmHg 10%
    15:00 +39°C° 0 mm 2 mps 756 mmHg 14%
    16:00 +38°C° 0 mm 2 mps 756 mmHg 17%
    17:00 +36°C° 0 mm 2 mps 756 mmHg 21%
    18:00 +34°C° 0 mm 2 mps 757 mmHg 32%
    19:00 +30°C° 0 mm 2 mps 757 mmHg 44%
    20:00 +27°C° 0 mm 2 mps 758 mmHg 56%
    21:00 +26°C° 0 mm 2 mps 758 mmHg 62%
    22:00 +26°C° 0 mm 2 mps 758 mmHg 68%
    23:00 +25°C° 0 mm 1 mps 759 mmHg 75%

    19 December, Wednesday

    Time Temperature Precipitation Wind Pressure Humidity
    00:00 +24°C° 0 mm 1 mps 758 mmHg 76%
    01:00 +24°C° 0 mm 1 mps 758 mmHg 77%
    02:00 +23°C° 0 mm 1 mps 758 mmHg 78%
    03:00 +21°C° 0 mm 0 mps 758 mmHg 77%
    04:00 +21°C° 0 mm 0 mps 758 mmHg 76%
    05:00 +20°C° 0 mm 0 mps 758 mmHg 75%
    06:00 +22°C° 0 mm 0 mps 758 mmHg 68%
    07:00 +25°C° 0 mm 1 mps 759 mmHg 60%
    08:00 +27°C° 0 mm 1 mps 759 mmHg 53%
    09:00 +30°C° 0 mm 1 mps 759 mmHg 42%
    10:00 +33°C° 0 mm 1 mps 759 mmHg 31%
    11:00 +37°C° 0 mm 2 mps 758 mmHg 20%
    12:00 +38°C° 0 mm 2 mps 758 mmHg 18%
    13:00 +40°C° 0 mm 2 mps 757 mmHg 16%
    14:00 +41°C° 0 mm 2 mps 756 mmHg 13%
    15:00 +39°C° 0 mm 2 mps 756 mmHg 17%
    16:00 +38°C° 0 mm 2 mps 756 mmHg 20%
    17:00 +36°C° 0 mm 2 mps 756 mmHg 23%
    18:00 +34°C° 0 mm 2 mps 756 mmHg 31%
    19:00 +30°C° 0 mm 2 mps 757 mmHg 40%
    20:00 +27°C° 0 mm 2 mps 757 mmHg 48%
    21:00 +26°C° 0 mm 2 mps 757 mmHg 50%
    22:00 +26°C° 0 mm 1 mps 757 mmHg 51%
    23:00 +25°C° 0 mm 1 mps 758 mmHg 53%
    Show more